Fort Myers, FL

10:57 AM EST on February 20, 2018 (GMT -0500)
Page

Weather History for KFMY - December, 2013

Change the Weather History Date:

Monday, December 9, 2013

  Actual Average Record
Temperature  
Mean Temperature 77 °F 68 °F  
Max Temperature 86 °F 78 °F 87 °F (1986)
Min Temperature 67 °F 58 °F 42 °F (1959)
Degree Days  
Heating Degree Days 0 2  
Month to date heating degree days 0 13  
Since 1 July heating degree days 9 31  
Cooling Degree Days 12 4  
Month to date cooling degree days 80 43  
Year to date cooling degree days 3954 3906  
Growing Degree Days 26 (Base 50)    
Moisture  
Dew Point 66 °F    
Average Humidity 77    
Maximum Humidity 100    
Minimum Humidity 48    
Precipitation  
Precipitation 0.00 in 0.05 in 1.45 in (2017)
Month to date precipitation 0.00 0.42  
Year to date precipitation 53.29 54.64  
Sea Level Pressure  
Sea Level Pressure 30.14 in    
Wind  
Wind Speed 5 mph (SE)    
Max Wind Speed 15 mph    
Max Gust Speed 21 mph    
Visibility 10 miles    
Events      
T = Trace of Precipitation, MM = Missing Value Source: NWS Daily Summary

Daily Weather History Graph

Daily Weather History Graph

Search for Another Location

Airport or City:

Trip Planner

Search our weather history database for the weather conditions in past years. The results will help you decide how hot, cold, wet, or windy it might be!

Date:

Astronomy

Dec. 09, 2013 Rise Set
Actual Time 7:04 AM EST 5:35 PM EST
Civil Twilight 6:39 AM EST 6:00 PM EST
Nautical Twilight 6:10 AM EST 6:29 PM EST
Astronomical Twilight 5:42 AM EST 6:57 PM EST
Moon 12:29 PM EST (12/9) No Moon Set
Length of Visible Light 11h 21m
Length of Day
10h 30m
Waxing Crescent, 51% of the Moon is Illuminated
Dec 9
Waxing Crescent
Dec 17
Full
Dec 25
Last Quarter
Jan 1
New
Jan 7
First Quarter

Hourly Weather History & Observations

Time (EST) Temp. Heat Index Dew Point Humidity Pressure Visibility Wind Dir Wind Speed Gust Speed Precip Events Conditions
12:53 AM 68.0 °F - 64.9 °F 90% 30.15 in 10.0 mi Calm Calm - N/A   Clear
1:53 AM 66.9 °F - 66.0 °F 97% 30.15 in 10.0 mi Calm Calm - N/A   Overcast
2:53 AM 68.0 °F - 66.0 °F 93% 30.15 in 10.0 mi NE 3.5 mph - N/A   Overcast
3:53 AM 68.0 °F - 66.0 °F 93% 30.14 in 10.0 mi East 4.6 mph - N/A   Mostly Cloudy
4:53 AM 68.0 °F - 66.0 °F 93% 30.14 in 10.0 mi East 3.5 mph - N/A   Overcast
5:53 AM 68.0 °F - 66.0 °F 93% 30.15 in 10.0 mi Calm Calm - N/A   Overcast
6:53 AM 68.0 °F - 66.0 °F 93% 30.17 in 9.0 mi East 3.5 mph - N/A   Overcast
7:53 AM 69.1 °F - 66.9 °F 93% 30.17 in 8.0 mi ESE 3.5 mph - N/A   Scattered Clouds
8:53 AM 73.9 °F - 69.1 °F 85% 30.17 in 10.0 mi SE 5.8 mph - N/A   Clear
9:53 AM 79.0 °F - 69.1 °F 72% 30.18 in 10.0 mi SSE 15.0 mph 19.6 mph N/A   Clear
10:53 AM 82.9 °F 85.8 °F 68.0 °F 60% 30.17 in 10.0 mi SE 12.7 mph 19.6 mph N/A   Clear
11:53 AM 82.9 °F 84.6 °F 64.9 °F 54% 30.16 in 10.0 mi SE 8.1 mph 16.1 mph N/A   Clear
12:53 PM 86.0 °F 87.3 °F 64.0 °F 48% 30.12 in 10.0 mi SE 10.4 mph - N/A   Scattered Clouds
1:53 PM 84.0 °F 85.4 °F 64.0 °F 51% 30.10 in 10.0 mi SE 8.1 mph - N/A   Partly Cloudy
2:53 PM 84.9 °F 85.9 °F 63.0 °F 48% 30.09 in 10.0 mi SSE 8.1 mph - N/A   Mostly Cloudy
3:53 PM 84.0 °F 86.3 °F 66.0 °F 55% 30.09 in 10.0 mi Variable 3.5 mph - N/A   Clear
4:53 PM 80.1 °F 82.3 °F 66.9 °F 64% 30.10 in 10.0 mi SSW 5.8 mph - N/A   Clear
5:53 PM 77.0 °F - 66.0 °F 69% 30.11 in 10.0 mi SW 4.6 mph - N/A   Clear
6:53 PM 75.0 °F - 66.0 °F 73% 30.13 in 10.0 mi Calm Calm - N/A   Clear
7:53 PM 71.1 °F - 66.0 °F 84% 30.14 in 10.0 mi Calm Calm - N/A   Clear
8:53 PM 71.1 °F - 66.0 °F 84% 30.14 in 10.0 mi Calm Calm - N/A   Clear
9:53 PM 71.1 °F - 64.0 °F 78% 30.15 in 10.0 mi Calm Calm - N/A   Clear
10:53 PM 69.1 °F - 64.0 °F 84% 30.14 in 10.0 mi SE 3.5 mph - N/A   Clear
11:53 PM 70.0 °F - 64.9 °F 84% 30.13 in 10.0 mi SE 4.6 mph - N/A   Clear